Retour au catalogue

STARLINK-4116

ActifCommunicationsVLEO
NORAD 53164·PAYLOAD·🇺🇸 United States

Lancé Jul 17, 2022 depuis Cape Canaveral Space Force Station

Loading…

Prochains Passages (prochaines 24 heures)

TLE

FraisSource: CelesTrak SupGP

Époque: Sep 14, 2026, 21:18 UTC

1 53164C 22083AJ  26257.88798611  .00027308  00000+0  80590-3 0  2575
2 53164  53.1610  31.6853 0001403  88.3785 128.3229 15.34413271    19

Suivez STARLINK-4116 en temps réel avec AllMySat

Download on the App Store